Showing default

COSMOS 1692, 16140

Orbit data source: Space-Track

COSMOS 1692, 16140 is a payload satellite owned by GUKOS (CIS) in LEO that was launched on Wed, 09 Oct 1985 UTC via a TSIKLON-3 launch vehicle from the Plesetsk Missile And Space Complex (PKMTR). Payload-class satellites include a variety of spacecraft equipped with specific instruments for various scientific and technological missions. These include communications satellites like Starlink; space stations such as the ISS; scientific satellites like the Hubble; Earth observation satellites from companies like Planet Labs, Umbra, and HawkEye 360; GPS; miniature CubeSats for education and research; and military/defense satellites.

Loading next visibility...
Identifier
16140, 1985-094C
Orbit
LEO
Country
Flag of CISCIS
Related business
Manufacturer
NPO PM
Mission
Defense Communications
Bus & Motor
STRELA-3, Unknown motor
Mass
225 kg wet, 225 kg dry
Launch date (UTC)
1985-10-09 (40 years ago)
Launch vehicle
TSIKLON-3
Launch site
Plesetsk Missile And Space Complex (PKMTR)
Object type
Payload
Rocket body
Debris
Shape & HBR
Cyl, 0.8 m
Radar Cross Section
1.257 m², Medium (>0.1 m² and < 1m²)

Expand to show TLE details & history
Last TLE update: 10 hours ago

TLE from 10 hours ago
0 COSMOS 1692
1 16140U 85094C   25242.87173654  .00000014  00000-0  17725-4 0  9995
2 16140  82.5978  56.0417 0016781 310.3116 182.7094 12.64913837841675
Epoch: 2025-08-30T20:55Z
TLE epoch observation values (Epoch: 2025-08-30T20:55:18.037Z)
Latitude
46.56698°
Longitude
-64.93137°
Altitude
1,422.845 km
Speed
7.148 km/s
True Right ascension
15h 12m 46s
True Declination
46° 24' 36"
Sunlit
Object was in daylight at epoch
Visualization orbit readout
Latitude
Unknown
Longitude
Unknown
Altitude
Unknown
Speed
Unknown
Apparent Right ascension
Unknown
Apparent Declination
Unknown
Sunlit
N/A
Visualization observer readout
Local Sidereal Time
22:10:46
Azimuth
Unknown
Elevation
Unknown
Doppler factor
Unknown
Orbital elements
Apogee altitude
1,413.097 km
Perigee altitude
1,386.992 km
Semi-major axis
7,778.181 km
Eccentricity
0.00168
Inclination
82.5978°
RAAN
56.0417°
Arg. of periapsis
310.3116°
True anomaly
182.70033°
Mean anomaly
182.7094°
Eccentric anomaly
182.70486°
Mean motion
3.16392 °/min
Orbital period
113.78 mins
BSTAR
0.000017725
Loading maneuver chart data...
Computing Atmospheric mass density...
Loading historical data...
Loading historical data...
Loading historical data...
Loading historical data...
Loading historical data...
Loading historical data...
Loading historical data...

Documentation

Showing up to 5 results
|